TVS152 LTBJ-LKPR

Flight info

Callsign TVS152
Flight time 2h 32m
Altitude 36000
Route VEXOL1T/34L VEXOL UG802 NEMIS UG18 GIKAS UN133 PEREN UL863 EVIVI DCT OKANA/N0436F380 DCT TONDO DCT BEGLA DCT NAVTI DCT BODAL DCT VLM VLM5R
Aircraft B738/M-SDE2E3FGHIRWXY/LB1

Departure

Time 2026-05-04 17:51
Airport Adnan Menderes International Airport (LTBJ)

Arrival

Time 2026-05-04 20:23
Airport Václav Havel Airport Prague (LKPR)
Time Latitude Longitude Altitude Speed Heading
2026-05-04 17:17 38.29270 27.15232 410 ft 0 kts 77°
2026-05-04 17:39 38.29261 27.15177 406 ft 4 kts 96°
2026-05-04 17:39 38.29271 27.15153 406 ft 4 kts 156°
2026-05-04 17:39 38.29289 27.15146 407 ft 1 kts 166°
2026-05-04 17:40 38.29292 27.15145 410 ft 0 kts 166°
2026-05-04 17:42 38.29291 27.15145 410 ft 1 kts 165°
2026-05-04 17:43 38.29269 27.15153 406 ft 6 kts 166°
2026-05-04 17:43 38.29216 27.15171 407 ft 9 kts 167°
2026-05-04 17:43 38.29174 27.15184 410 ft 9 kts 163°
2026-05-04 17:43 38.29111 27.15201 410 ft 9 kts 167°
2026-05-04 17:44 38.29050 27.15220 410 ft 9 kts 167°
2026-05-04 17:44 38.29013 27.15269 410 ft 8 kts 101°
2026-05-04 17:44 38.28971 27.15311 410 ft 8 kts 167°
2026-05-04 17:44 38.28916 27.15326 412 ft 8 kts 168°
2026-05-04 17:45 38.28863 27.15341 409 ft 8 kts 166°
2026-05-04 17:45 38.28821 27.15358 413 ft 6 kts 165°
2026-05-04 17:45 38.28779 27.15370 412 ft 7 kts 172°
2026-05-04 17:45 38.28736 27.15381 412 ft 7 kts 167°
2026-05-04 17:46 38.28692 27.15394 418 ft 7 kts 167°
2026-05-04 17:46 38.28650 27.15406 413 ft 7 kts 167°
2026-05-04 17:46 38.28600 27.15421 415 ft 10 kts 166°
2026-05-04 17:46 38.28516 27.15447 417 ft 13 kts 167°
2026-05-04 17:47 38.28428 27.15474 415 ft 13 kts 166°
2026-05-04 17:47 38.28344 27.15499 413 ft 12 kts 168°
2026-05-04 17:47 38.28261 27.15524 418 ft 12 kts 166°
2026-05-04 17:47 38.28182 27.15548 408 ft 12 kts 167°
2026-05-04 17:48 38.28107 27.15571 413 ft 11 kts 167°
2026-05-04 17:48 38.28035 27.15593 412 ft 10 kts 166°
2026-05-04 17:48 38.27965 27.15614 411 ft 10 kts 166°
2026-05-04 17:48 38.27897 27.15634 414 ft 10 kts 167°
2026-05-04 17:49 38.27831 27.15654 418 ft 10 kts 167°
2026-05-04 17:49 38.27776 27.15672 411 ft 6 kts 156°
2026-05-04 17:49 38.27759 27.15704 411 ft 0 kts 94°
2026-05-04 17:49 38.27765 27.15747 414 ft 8 kts 76°
2026-05-04 17:50 38.27780 27.15823 413 ft 11 kts 77°
2026-05-04 17:50 38.27807 27.15901 413 ft 7 kts 27°
2026-05-04 17:50 38.27840 27.15903 414 ft 5 kts 347°
2026-05-04 17:50 38.28097 27.15824 410 ft 83 kts 346°
2026-05-04 17:51 38.28941 27.15567 485 ft 157 kts 346°
2026-05-04 17:51 38.30072 27.15274 1449 ft 171 kts 350°
2026-05-04 17:51 38.31280 27.15017 2594 ft 180 kts 351°
2026-05-04 17:51 38.32508 27.14785 3846 ft 176 kts 350°
2026-05-04 17:52 38.33699 27.14492 5129 ft 173 kts 350°
2026-05-04 17:52 38.34892 27.14120 6147 ft 188 kts 344°
2026-05-04 17:52 38.36248 27.13532 6559 ft 226 kts 342°
2026-05-04 17:52 38.37847 27.12822 7115 ft 253 kts 343°
2026-05-04 17:53 38.39510 27.12104 8226 ft 250 kts 347°
2026-05-04 17:53 38.41157 27.11396 9202 ft 256 kts 330°
2026-05-04 17:53 38.42315 27.09637 10089 ft 271 kts 298°
2026-05-04 17:53 38.42538 27.07190 10897 ft 292 kts 266°
2026-05-04 17:54 38.41906 27.04651 11767 ft 299 kts 258°
2026-05-04 17:54 38.41213 27.02137 12579 ft 304 kts 254°
2026-05-04 17:54 38.40141 26.99757 13379 ft 318 kts 234°
2026-05-04 17:54 38.38466 26.97915 14187 ft 328 kts 219°
2026-05-04 17:55 38.36406 26.96496 14925 ft 336 kts 211°
2026-05-04 17:55 38.34562 26.94737 15606 ft 329 kts 236°
2026-05-04 17:55 38.33348 26.92323 16354 ft 322 kts 252°
2026-05-04 17:55 38.32508 26.89695 17072 ft 319 kts 260°
2026-05-04 17:56 38.32096 26.86957 17789 ft 311 kts 275°
2026-05-04 17:56 38.32103 26.84204 18491 ft 311 kts 280°
2026-05-04 17:56 38.32227 26.81443 19076 ft 315 kts 281°
2026-05-04 17:56 38.32382 26.78638 19635 ft 320 kts 281°
2026-05-04 17:57 38.32538 26.75787 20210 ft 325 kts 281°
2026-05-04 17:57 38.32688 26.72891 20781 ft 330 kts 281°
2026-05-04 17:57 38.32833 26.69948 21330 ft 336 kts 280°
2026-05-04 17:57 38.32971 26.66992 21878 ft 341 kts 280°
2026-05-04 17:58 38.33110 26.63910 22425 ft 346 kts 279°
2026-05-04 17:58 38.33246 26.60826 22970 ft 351 kts 279°
2026-05-04 17:58 38.33381 26.57701 23508 ft 356 kts 279°
2026-05-04 17:58 38.33516 26.54528 23982 ft 361 kts 279°
2026-05-04 17:59 38.33649 26.51369 24448 ft 363 kts 279°
2026-05-04 17:59 38.33784 26.48142 24910 ft 367 kts 279°
2026-05-04 17:59 38.34057 26.41554 25850 ft 373 kts 278°
2026-05-04 18:00 38.34193 26.38243 26275 ft 376 kts 278°
2026-05-04 18:00 38.34329 26.34908 26791 ft 378 kts 278°
2026-05-04 18:00 38.34463 26.31565 27383 ft 377 kts 278°
2026-05-04 18:00 38.34594 26.28282 27956 ft 376 kts 278°
2026-05-04 18:01 38.34728 26.24955 28494 ft 376 kts 278°
2026-05-04 18:01 38.34861 26.21628 29014 ft 376 kts 278°
2026-05-04 18:01 38.34957 26.18302 29540 ft 377 kts 275°
2026-05-04 18:02 38.35009 26.11581 30490 ft 375 kts 278°
2026-05-04 18:02 38.35226 26.08325 30918 ft 373 kts 280°
2026-05-04 18:02 38.35499 26.05010 31400 ft 370 kts 280°
2026-05-04 18:02 38.35767 26.01756 31848 ft 368 kts 280°
2026-05-04 18:03 38.36019 25.98507 32276 ft 367 kts 279°
2026-05-04 18:03 38.36256 25.95275 32691 ft 366 kts 279°
2026-05-04 18:03 38.36485 25.92049 33097 ft 364 kts 279°
2026-05-04 18:03 38.36708 25.88847 33520 ft 362 kts 279°
2026-05-04 18:04 38.36928 25.85662 33945 ft 360 kts 278°
2026-05-04 18:04 38.37123 25.82489 34305 ft 357 kts 281°
2026-05-04 18:04 38.39110 25.76995 34873 ft 340 kts 319°
2026-05-04 18:05 38.40917 25.75085 35139 ft 337 kts 325°
2026-05-04 18:05 38.42789 25.73305 35467 ft 334 kts 325°
2026-05-04 18:05 38.44615 25.71558 35820 ft 330 kts 325°
2026-05-04 18:05 38.46441 25.69801 36128 ft 328 kts 324°
2026-05-04 18:06 38.50171 25.66179 35838 ft 349 kts 324°
2026-05-04 18:06 38.54096 25.62343 36004 ft 356 kts 324°
2026-05-04 18:07 38.58079 25.58441 36097 ft 366 kts 324°
2026-05-04 18:07 38.62186 25.54412 36102 ft 378 kts 324°
2026-05-04 18:08 38.66418 25.50254 36109 ft 389 kts 324°
2026-05-04 18:08 38.70773 25.45968 36110 ft 400 kts 324°
2026-05-04 18:09 38.75242 25.41561 36106 ft 411 kts 323°
2026-05-04 18:09 38.79791 25.37068 36100 ft 418 kts 323°
2026-05-04 18:10 38.84399 25.32508 36092 ft 419 kts 323°
2026-05-04 18:10 38.89039 25.27909 36091 ft 419 kts 323°
2026-05-04 18:11 38.93616 25.23366 36089 ft 418 kts 323°
2026-05-04 18:11 38.98215 25.18792 36091 ft 417 kts 323°
2026-05-04 18:12 39.02798 25.14226 36088 ft 416 kts 323°
2026-05-04 18:12 39.07370 25.09663 36089 ft 415 kts 323°
2026-05-04 18:13 39.11923 25.05110 36092 ft 414 kts 323°
2026-05-04 18:14 39.18731 24.98287 36089 ft 413 kts 323°
2026-05-04 18:14 39.23263 24.93737 36089 ft 412 kts 323°
2026-05-04 18:15 39.32374 24.84565 36092 ft 417 kts 323°
2026-05-04 18:16 39.36957 24.79935 36093 ft 420 kts 323°
2026-05-04 18:16 39.41556 24.75277 36084 ft 419 kts 323°
2026-05-04 18:17 39.48366 24.68370 36084 ft 413 kts 323°
2026-05-04 18:17 39.53245 24.64532 36096 ft 410 kts 335°
2026-05-04 18:18 39.55822 24.62935 36078 ft 411 kts 335°
2026-05-04 18:18 39.60992 24.59771 36083 ft 411 kts 335°
2026-05-04 18:19 39.68737 24.54956 36079 ft 412 kts 335°
2026-05-04 18:19 39.73034 24.52253 36079 ft 414 kts 334°
2026-05-04 18:20 39.78228 24.48974 36085 ft 417 kts 334°
2026-05-04 18:20 39.83456 24.45668 36077 ft 419 kts 334°
2026-05-04 18:21 39.88710 24.42341 36080 ft 420 kts 334°
2026-05-04 18:21 39.93964 24.39008 36078 ft 420 kts 334°
2026-05-04 18:22 39.99224 24.35667 36075 ft 420 kts 334°
2026-05-04 18:22 40.04481 24.32322 36073 ft 420 kts 334°
2026-05-04 18:23 40.09724 24.28978 36072 ft 419 kts 334°
2026-05-04 18:23 40.14957 24.25635 36069 ft 418 kts 334°
2026-05-04 18:24 40.20173 24.22297 36064 ft 417 kts 334°
2026-05-04 18:24 40.25376 24.18962 36064 ft 416 kts 334°
2026-05-04 18:25 40.30576 24.15623 36069 ft 415 kts 334°
2026-05-04 18:25 40.35763 24.12287 36066 ft 415 kts 334°
2026-05-04 18:26 40.40950 24.08945 36059 ft 415 kts 334°
2026-05-04 18:26 40.46139 24.05596 36063 ft 415 kts 334°
2026-05-04 18:27 40.51323 24.02241 36062 ft 416 kts 334°
2026-05-04 18:27 40.56521 23.98871 36062 ft 416 kts 334°
2026-05-04 18:28 40.61487 23.95665 36064 ft 417 kts 335°
2026-05-04 18:28 40.66720 23.92384 36061 ft 417 kts 335°
2026-05-04 18:29 40.71970 23.89104 36065 ft 418 kts 335°
2026-05-04 18:29 40.77221 23.85804 36062 ft 418 kts 335°
2026-05-04 18:30 40.85102 23.80830 36065 ft 419 kts 335°
2026-05-04 18:31 40.90368 23.77497 36059 ft 419 kts 335°
2026-05-04 18:31 40.95630 23.74160 36067 ft 420 kts 335°
2026-05-04 18:32 41.00901 23.70811 36065 ft 420 kts 335°
2026-05-04 18:32 41.06168 23.67458 36069 ft 420 kts 335°
2026-05-04 18:33 41.11439 23.64096 36071 ft 420 kts 335°
2026-05-04 18:33 41.16699 23.60733 36079 ft 420 kts 334°
2026-05-04 18:34 41.21960 23.57368 36072 ft 420 kts 335°
2026-05-04 18:34 41.27222 23.54000 36088 ft 419 kts 335°
2026-05-04 18:35 41.32488 23.50626 36075 ft 419 kts 334°
2026-05-04 18:35 41.37742 23.47243 36099 ft 419 kts 334°
2026-05-04 18:36 41.42989 23.43862 36095 ft 419 kts 334°
2026-05-04 18:36 41.48189 23.40474 36088 ft 419 kts 334°
2026-05-04 18:37 41.53452 23.37033 36104 ft 419 kts 334°
2026-05-04 18:37 41.58653 23.33628 36097 ft 419 kts 334°
2026-05-04 18:38 41.63893 23.30193 36105 ft 419 kts 334°
2026-05-04 18:38 41.69128 23.26756 36114 ft 419 kts 334°
2026-05-04 18:39 41.74372 23.23307 36121 ft 420 kts 334°
2026-05-04 18:39 41.79655 23.19826 36119 ft 421 kts 334°
2026-05-04 18:40 41.84910 23.16357 36116 ft 421 kts 334°
2026-05-04 18:40 41.90121 23.12910 36109 ft 419 kts 334°
2026-05-04 18:41 41.95340 23.09452 36115 ft 418 kts 334°
2026-05-04 18:41 42.00556 23.05990 36114 ft 419 kts 334°
2026-05-04 18:42 42.05784 23.02513 36118 ft 419 kts 334°
2026-05-04 18:42 42.11012 22.99030 36114 ft 419 kts 334°
2026-05-04 18:43 42.16229 22.95548 36111 ft 418 kts 334°
2026-05-04 18:43 42.21402 22.92088 36114 ft 417 kts 334°
2026-05-04 18:44 42.26601 22.88605 36114 ft 417 kts 334°
2026-05-04 18:44 42.31789 22.85123 36122 ft 416 kts 334°
2026-05-04 18:45 42.36973 22.81637 36127 ft 416 kts 334°
2026-05-04 18:45 42.42151 22.78149 36121 ft 416 kts 334°
2026-05-04 18:46 42.47334 22.74650 36124 ft 416 kts 334°
2026-05-04 18:46 42.52516 22.71146 36131 ft 416 kts 334°
2026-05-04 18:47 42.57701 22.67633 36131 ft 416 kts 334°
2026-05-04 18:47 42.62855 22.64135 36135 ft 416 kts 334°
2026-05-04 18:48 42.68040 22.60608 36130 ft 416 kts 334°
2026-05-04 18:48 42.73206 22.57088 36130 ft 415 kts 334°
2026-05-04 18:49 42.78363 22.53568 36131 ft 415 kts 334°
2026-05-04 18:49 42.83284 22.49460 36129 ft 415 kts 327°
2026-05-04 18:50 42.88060 22.45001 36125 ft 416 kts 326°
2026-05-04 18:50 42.92838 22.40539 36123 ft 416 kts 327°
2026-05-04 18:51 42.97633 22.36109 36117 ft 416 kts 327°
2026-05-04 18:51 43.02433 22.31694 36117 ft 416 kts 327°
2026-05-04 18:52 43.07226 22.27285 36107 ft 415 kts 327°
2026-05-04 18:52 43.12010 22.22877 36092 ft 414 kts 327°
2026-05-04 18:53 43.16774 22.18478 36099 ft 412 kts 327°
2026-05-04 18:53 43.21526 22.14082 36091 ft 412 kts 327°
2026-05-04 18:54 43.26282 22.09674 36080 ft 412 kts 327°
2026-05-04 18:54 43.31029 22.05265 36081 ft 412 kts 327°
2026-05-04 18:55 43.35768 22.00855 36077 ft 411 kts 327°
2026-05-04 18:55 43.42865 21.94235 36086 ft 411 kts 327°
2026-05-04 18:56 43.47590 21.89818 36077 ft 411 kts 327°
2026-05-04 18:56 43.52318 21.85390 36083 ft 411 kts 327°
2026-05-04 18:57 43.57038 21.80959 36087 ft 410 kts 327°
2026-05-04 18:57 43.61754 21.76523 36096 ft 411 kts 327°
2026-05-04 18:58 43.66477 21.72074 36090 ft 411 kts 327°
2026-05-04 18:58 43.71196 21.67619 36096 ft 410 kts 327°
2026-05-04 18:59 43.75906 21.63163 36102 ft 410 kts 327°
2026-05-04 18:59 43.80618 21.58697 36103 ft 410 kts 327°
2026-05-04 19:00 43.84557 21.54958 36103 ft 410 kts 327°
2026-05-04 19:00 43.89259 21.50486 36099 ft 410 kts 327°
2026-05-04 19:01 43.93957 21.46009 36103 ft 410 kts 327°
2026-05-04 19:01 43.98659 21.41519 36098 ft 410 kts 327°
2026-05-04 19:02 44.03355 21.37027 36099 ft 410 kts 327°
2026-05-04 19:02 44.08052 21.32524 36096 ft 410 kts 327°
2026-05-04 19:03 44.12751 21.28011 36098 ft 410 kts 327°
2026-05-04 19:03 44.17453 21.23486 36095 ft 411 kts 327°
2026-05-04 19:04 44.22154 21.18952 36092 ft 411 kts 326°
2026-05-04 19:04 44.26863 21.14403 36094 ft 412 kts 326°
2026-05-04 19:05 44.31571 21.09845 36091 ft 412 kts 326°
2026-05-04 19:05 44.36279 21.05278 36092 ft 412 kts 326°
2026-05-04 19:06 44.40988 21.00701 36095 ft 412 kts 326°
2026-05-04 19:06 44.45696 20.96116 36094 ft 412 kts 326°
2026-05-04 19:07 44.50405 20.91521 36088 ft 412 kts 326°
2026-05-04 19:07 44.55108 20.86921 36085 ft 412 kts 326°
2026-05-04 19:08 44.59518 20.82601 36087 ft 412 kts 326°
2026-05-04 19:08 44.64214 20.77991 36088 ft 411 kts 326°
2026-05-04 19:09 44.68904 20.73378 36084 ft 411 kts 326°
2026-05-04 19:09 44.73580 20.68770 36086 ft 410 kts 326°
2026-05-04 19:10 44.78247 20.64160 36081 ft 409 kts 326°
2026-05-04 19:10 44.82903 20.59552 36079 ft 409 kts 326°
2026-05-04 19:11 44.87552 20.54943 36077 ft 408 kts 326°
2026-05-04 19:11 44.92195 20.50330 36081 ft 408 kts 326°
2026-05-04 19:12 44.99149 20.43403 36080 ft 408 kts 326°
2026-05-04 19:13 45.03785 20.38774 36080 ft 408 kts 326°
2026-05-04 19:13 45.08419 20.34137 36078 ft 408 kts 326°
2026-05-04 19:14 45.13053 20.29491 36075 ft 408 kts 326°
2026-05-04 19:14 45.17692 20.24830 36080 ft 409 kts 326°
2026-05-04 19:15 45.22333 20.20157 36077 ft 409 kts 326°
2026-05-04 19:15 45.26976 20.15474 36077 ft 410 kts 326°
2026-05-04 19:16 45.31633 20.10767 36074 ft 411 kts 326°
2026-05-04 19:16 45.36287 20.06052 36075 ft 411 kts 326°
2026-05-04 19:17 45.40942 20.01327 36073 ft 411 kts 326°
2026-05-04 19:17 45.45595 19.96594 36072 ft 411 kts 325°
2026-05-04 19:18 45.50224 19.91875 36072 ft 412 kts 325°
2026-05-04 19:18 45.54886 19.87115 36071 ft 412 kts 325°
2026-05-04 19:19 45.59550 19.82341 36066 ft 413 kts 325°
2026-05-04 19:19 45.64248 19.77522 36067 ft 413 kts 325°
2026-05-04 19:20 45.68910 19.72733 36065 ft 412 kts 325°
2026-05-04 19:20 45.73536 19.67966 36064 ft 412 kts 325°
2026-05-04 19:21 45.78183 19.63169 36062 ft 412 kts 325°
2026-05-04 19:21 45.82815 19.58305 36062 ft 413 kts 322°
2026-05-04 19:22 45.87285 19.53089 36064 ft 414 kts 321°
2026-05-04 19:22 45.91715 19.47784 36060 ft 415 kts 321°
2026-05-04 19:23 45.96160 19.42494 36056 ft 415 kts 321°
2026-05-04 19:23 46.00617 19.37215 36058 ft 415 kts 321°
2026-05-04 19:24 46.05075 19.31938 36058 ft 415 kts 321°
2026-05-04 19:24 46.09540 19.26645 36051 ft 415 kts 321°
2026-05-04 19:25 46.13992 19.21356 36053 ft 415 kts 321°
2026-05-04 19:25 46.18438 19.16061 36051 ft 414 kts 321°
2026-05-04 19:26 46.22877 19.10763 36046 ft 414 kts 321°
2026-05-04 19:26 46.27308 19.05463 36047 ft 413 kts 320°
2026-05-04 19:27 46.31729 19.00163 36046 ft 413 kts 320°
2026-05-04 19:27 46.36143 18.94861 36044 ft 412 kts 320°
2026-05-04 19:28 46.40557 18.89547 36039 ft 412 kts 320°
2026-05-04 19:28 46.44960 18.84235 36039 ft 412 kts 320°
2026-05-04 19:29 46.49361 18.78913 36041 ft 412 kts 320°
2026-05-04 19:29 46.53756 18.73587 36040 ft 412 kts 320°
2026-05-04 19:30 46.58150 18.68251 36033 ft 412 kts 320°
2026-05-04 19:30 46.62549 18.62897 36034 ft 412 kts 320°
2026-05-04 19:31 46.66942 18.57539 36032 ft 412 kts 320°
2026-05-04 19:31 46.71335 18.52169 36031 ft 412 kts 320°
2026-05-04 19:32 46.75729 18.46785 36032 ft 413 kts 320°
2026-05-04 19:32 46.80131 18.41380 36031 ft 413 kts 320°
2026-05-04 19:33 46.84528 18.35970 36024 ft 413 kts 320°
2026-05-04 19:33 46.88918 18.30555 36028 ft 413 kts 320°
2026-05-04 19:34 46.93312 18.25124 36023 ft 413 kts 320°
2026-05-04 19:34 46.97701 18.19687 36023 ft 413 kts 320°
2026-05-04 19:35 47.01341 18.15168 36024 ft 413 kts 320°
2026-05-04 19:35 47.05718 18.09723 36021 ft 412 kts 320°
2026-05-04 19:36 47.10093 18.04269 36018 ft 412 kts 319°
2026-05-04 19:36 47.14451 17.98824 36018 ft 411 kts 319°
2026-05-04 19:37 47.18807 17.93370 36015 ft 411 kts 319°
2026-05-04 19:37 47.23151 17.87918 36008 ft 410 kts 319°
2026-05-04 19:38 47.27492 17.82457 36008 ft 410 kts 319°
2026-05-04 19:38 47.31828 17.76991 35998 ft 410 kts 319°
2026-05-04 19:39 47.36161 17.71516 35998 ft 410 kts 319°
2026-05-04 19:39 47.40495 17.66028 35994 ft 411 kts 319°
2026-05-04 19:40 47.44833 17.60523 35995 ft 411 kts 319°
2026-05-04 19:40 47.49166 17.55011 35996 ft 411 kts 319°
2026-05-04 19:41 47.53494 17.49492 35993 ft 411 kts 319°
2026-05-04 19:41 47.57819 17.43966 35987 ft 411 kts 319°
2026-05-04 19:42 47.62144 17.38426 35983 ft 411 kts 318°
2026-05-04 19:42 47.66470 17.32873 35978 ft 411 kts 318°
2026-05-04 19:43 47.70789 17.27315 35969 ft 411 kts 318°
2026-05-04 19:43 47.75100 17.21755 35968 ft 410 kts 318°
2026-05-04 19:44 47.79412 17.16182 35965 ft 410 kts 318°
2026-05-04 19:44 47.83767 17.10701 35957 ft 411 kts 324°
2026-05-04 19:45 47.88573 17.06080 35957 ft 411 kts 326°
2026-05-04 19:45 47.93426 17.01549 35965 ft 412 kts 326°
2026-05-04 19:46 47.98283 16.96969 35961 ft 413 kts 326°
2026-05-04 19:46 48.03124 16.92361 35957 ft 412 kts 326°
2026-05-04 19:47 48.07942 16.87752 35946 ft 412 kts 326°
2026-05-04 19:47 48.12770 16.83122 35942 ft 412 kts 326°
2026-05-04 19:48 48.17599 16.78480 35942 ft 412 kts 325°
2026-05-04 19:48 48.22433 16.73822 35941 ft 413 kts 325°
2026-05-04 19:49 48.27263 16.69159 35939 ft 413 kts 325°
2026-05-04 19:49 48.32094 16.64484 35938 ft 413 kts 325°
2026-05-04 19:50 48.36923 16.59800 35939 ft 413 kts 325°
2026-05-04 19:50 48.41755 16.55102 35934 ft 413 kts 325°
2026-05-04 19:51 48.46580 16.50400 35932 ft 413 kts 325°
2026-05-04 19:51 48.51410 16.45683 35929 ft 414 kts 325°
2026-05-04 19:52 48.56242 16.40952 35925 ft 414 kts 325°
2026-05-04 19:52 48.61073 16.36211 35923 ft 414 kts 324°
2026-05-04 19:53 48.65905 16.31459 35926 ft 413 kts 324°
2026-05-04 19:53 48.70722 16.26709 35925 ft 414 kts 324°
2026-05-04 19:54 48.75549 16.21942 35923 ft 414 kts 325°
2026-05-04 19:54 48.80731 16.18086 35935 ft 417 kts 336°
2026-05-04 19:55 48.86151 16.14909 35608 ft 418 kts 336°
2026-05-04 19:55 48.91506 16.11765 35665 ft 412 kts 336°
2026-05-04 19:56 48.96858 16.08561 35689 ft 414 kts 335°
2026-05-04 19:56 49.01986 16.04701 35689 ft 409 kts 321°
2026-05-04 19:57 49.06145 15.98873 35698 ft 406 kts 313°
2026-05-04 19:57 49.10133 15.92826 35506 ft 398 kts 313°
2026-05-04 19:57 49.12094 15.89861 35047 ft 396 kts 313°
2026-05-04 19:58 49.14055 15.86906 34501 ft 397 kts 313°
2026-05-04 19:58 49.16022 15.83948 34029 ft 396 kts 313°
2026-05-04 19:58 49.17984 15.81005 33594 ft 394 kts 313°
2026-05-04 19:58 49.19930 15.78085 33184 ft 390 kts 313°
2026-05-04 19:59 49.21860 15.75189 32763 ft 387 kts 313°
2026-05-04 19:59 49.23778 15.72309 32326 ft 385 kts 313°
2026-05-04 19:59 49.25683 15.69443 31898 ft 383 kts 313°
2026-05-04 19:59 49.27577 15.66593 31480 ft 381 kts 313°
2026-05-04 20:00 49.29462 15.63752 31055 ft 379 kts 313°
2026-05-04 20:00 49.31337 15.60922 30665 ft 377 kts 313°
2026-05-04 20:00 49.33200 15.58107 30276 ft 376 kts 313°
2026-05-04 20:00 49.35058 15.55298 29861 ft 374 kts 313°
2026-05-04 20:01 49.36901 15.52507 29423 ft 371 kts 313°
2026-05-04 20:01 49.38736 15.49727 28998 ft 369 kts 313°
2026-05-04 20:01 49.40555 15.46966 28541 ft 367 kts 313°
2026-05-04 20:01 49.42365 15.44217 28095 ft 365 kts 313°
2026-05-04 20:02 49.44163 15.41484 27664 ft 363 kts 313°
2026-05-04 20:02 49.45947 15.38767 27277 ft 360 kts 312°
2026-05-04 20:02 49.47721 15.36064 26890 ft 358 kts 312°
2026-05-04 20:02 49.49480 15.33380 26482 ft 356 kts 312°
2026-05-04 20:03 49.51235 15.30699 26087 ft 354 kts 312°
2026-05-04 20:03 49.52979 15.28032 25703 ft 352 kts 312°
2026-05-04 20:03 49.54715 15.25375 25331 ft 350 kts 312°
2026-05-04 20:03 49.56438 15.22736 24961 ft 348 kts 312°
2026-05-04 20:04 49.58151 15.20108 24583 ft 346 kts 312°
2026-05-04 20:04 49.59853 15.17494 24231 ft 345 kts 312°
2026-05-04 20:04 49.61547 15.14891 23880 ft 343 kts 312°
2026-05-04 20:04 49.63230 15.12301 23530 ft 341 kts 312°
2026-05-04 20:05 49.64905 15.09721 23126 ft 339 kts 312°
2026-05-04 20:05 49.66568 15.07157 22713 ft 338 kts 312°
2026-05-04 20:05 49.68224 15.04601 22310 ft 336 kts 312°
2026-05-04 20:05 49.69875 15.02050 21924 ft 334 kts 312°
2026-05-04 20:06 49.71513 14.99518 21533 ft 333 kts 312°
2026-05-04 20:06 49.73144 14.96993 21151 ft 331 kts 312°
2026-05-04 20:06 49.74767 14.94477 20768 ft 330 kts 312°
2026-05-04 20:06 49.76386 14.91965 20406 ft 329 kts 312°
2026-05-04 20:07 49.78001 14.89458 20041 ft 328 kts 312°
2026-05-04 20:07 49.79605 14.86965 19688 ft 326 kts 312°
2026-05-04 20:07 49.81201 14.84481 19335 ft 325 kts 312°
2026-05-04 20:07 49.82792 14.82003 18985 ft 324 kts 312°
2026-05-04 20:08 49.84375 14.79536 18636 ft 323 kts 312°
2026-05-04 20:08 49.85954 14.77072 18287 ft 322 kts 311°
2026-05-04 20:08 49.87528 14.74613 17928 ft 320 kts 311°
2026-05-04 20:08 49.89088 14.72175 17574 ft 318 kts 311°
2026-05-04 20:09 49.90642 14.69743 17223 ft 316 kts 311°
2026-05-04 20:09 49.92182 14.67331 16890 ft 314 kts 311°
2026-05-04 20:09 49.93713 14.64929 16527 ft 312 kts 311°
2026-05-04 20:09 49.95136 14.62696 16209 ft 311 kts 311°
2026-05-04 20:10 49.96630 14.60350 15865 ft 309 kts 311°
2026-05-04 20:10 49.98144 14.57968 15523 ft 308 kts 311°
2026-05-04 20:10 49.99649 14.55600 15182 ft 307 kts 310°
2026-05-04 20:10 50.01144 14.53244 14854 ft 305 kts 310°
2026-05-04 20:11 50.02632 14.50897 14523 ft 304 kts 310°
2026-05-04 20:11 50.04117 14.48553 14190 ft 303 kts 310°
2026-05-04 20:11 50.05593 14.46220 13878 ft 302 kts 310°
2026-05-04 20:11 50.06588 14.44648 13678 ft 300 kts 310°
2026-05-04 20:12 50.08025 14.42375 13431 ft 296 kts 310°
2026-05-04 20:12 50.09460 14.40102 13166 ft 293 kts 310°
2026-05-04 20:12 50.10902 14.37816 12816 ft 291 kts 310°
2026-05-04 20:12 50.12319 14.35566 12482 ft 290 kts 310°
2026-05-04 20:13 50.13726 14.33331 12171 ft 288 kts 310°
2026-05-04 20:13 50.15123 14.31109 11877 ft 286 kts 310°
2026-05-04 20:13 50.16514 14.28895 11571 ft 285 kts 310°
2026-05-04 20:13 50.17898 14.26690 11271 ft 283 kts 310°
2026-05-04 20:14 50.19273 14.24498 10987 ft 281 kts 311°
2026-05-04 20:14 50.20639 14.22318 10699 ft 280 kts 311°
2026-05-04 20:14 50.22004 14.20137 10280 ft 283 kts 311°
2026-05-04 20:14 50.23388 14.17924 9843 ft 287 kts 311°
2026-05-04 20:15 50.24796 14.15671 9227 ft 294 kts 312°
2026-05-04 20:15 50.26257 14.13331 8513 ft 305 kts 312°
2026-05-04 20:15 50.27717 14.10993 8376 ft 295 kts 311°
2026-05-04 20:15 50.28801 14.08393 8259 ft 280 kts 287°
2026-05-04 20:16 50.29001 14.05459 8184 ft 266 kts 262°
2026-05-04 20:16 50.28649 14.02685 8125 ft 255 kts 256°
2026-05-04 20:16 50.28234 14.00053 8065 ft 243 kts 255°
2026-05-04 20:16 50.27598 13.97731 8054 ft 222 kts 229°
2026-05-04 20:17 50.26393 13.96449 7923 ft 209 kts 197°
2026-05-04 20:17 50.24933 13.96609 7184 ft 220 kts 155°
2026-05-04 20:17 50.23759 13.98090 6582 ft 211 kts 135°
2026-05-04 20:17 50.22818 13.99750 6015 ft 198 kts 129°
2026-05-04 20:18 50.21994 14.01408 5435 ft 190 kts 128°
2026-05-04 20:18 50.21209 14.03030 4858 ft 184 kts 127°
2026-05-04 20:18 50.20446 14.04605 4288 ft 179 kts 127°
2026-05-04 20:18 50.19716 14.06114 4010 ft 173 kts 127°
2026-05-04 20:19 50.18982 14.07630 3793 ft 175 kts 127°
2026-05-04 20:19 50.18264 14.09110 3551 ft 165 kts 127°
2026-05-04 20:19 50.17600 14.10480 3380 ft 153 kts 127°
2026-05-04 20:19 50.16956 14.11809 3147 ft 153 kts 127°
2026-05-04 20:20 50.16320 14.13123 2944 ft 151 kts 126°
2026-05-04 20:20 50.15685 14.14435 2748 ft 151 kts 126°
2026-05-04 20:20 50.15056 14.15735 2539 ft 149 kts 126°
2026-05-04 20:20 50.14440 14.17008 2352 ft 145 kts 126°
2026-05-04 20:21 50.13835 14.18260 2151 ft 145 kts 125°
2026-05-04 20:21 50.13230 14.19512 1949 ft 145 kts 126°
2026-05-04 20:21 50.12000 14.22058 1563 ft 147 kts 126°
2026-05-04 20:22 50.11409 14.23292 1403 ft 141 kts 125°
2026-05-04 20:22 50.10812 14.24513 1244 ft 146 kts 126°
2026-05-04 20:22 50.10216 14.25748 1187 ft 131 kts 127°
2026-05-04 20:22 50.09605 14.27028 1206 ft 135 kts 129°
2026-05-04 20:23 50.09248 14.27735 1211 ft 54 kts 124°
2026-05-04 20:23 50.09112 14.28033 1208 ft 23 kts 123°
2026-05-04 20:23 50.09094 14.28129 1208 ft 3 kts 89°
2026-05-04 20:23 50.09110 14.28205 1210 ft 9 kts 58°
2026-05-04 20:24 50.09177 14.28282 1210 ft 13 kts 12°
2026-05-04 20:24 50.09256 14.28228 1212 ft 13 kts 316°
2026-05-04 20:24 50.09319 14.28132 1214 ft 12 kts 315°
2026-05-04 20:24 50.09378 14.28042 1214 ft 12 kts 316°
2026-05-04 20:25 50.09435 14.27955 1215 ft 11 kts 315°
2026-05-04 20:25 50.09491 14.27868 1213 ft 12 kts 315°
2026-05-04 20:25 50.09554 14.27771 1211 ft 13 kts 316°
2026-05-04 20:25 50.09620 14.27670 1209 ft 13 kts 314°
2026-05-04 20:26 50.09690 14.27563 1206 ft 15 kts 314°
2026-05-04 20:26 50.09764 14.27447 1204 ft 15 kts 316°
2026-05-04 20:26 50.09834 14.27339 1202 ft 14 kts 314°
2026-05-04 20:26 50.09899 14.27221 1201 ft 14 kts 306°
2026-05-04 20:27 50.09959 14.27096 1198 ft 15 kts 307°
2026-05-04 20:27 50.10013 14.26983 1194 ft 14 kts 307°
2026-05-04 20:27 50.10077 14.26847 1187 ft 18 kts 308°
2026-05-04 20:27 50.10160 14.26679 1176 ft 17 kts 306°
2026-05-04 20:28 50.10224 14.26546 1174 ft 15 kts 308°
2026-05-04 20:28 50.10285 14.26420 1175 ft 14 kts 306°
2026-05-04 20:28 50.10341 14.26303 1173 ft 9 kts 307°
2026-05-04 20:28 50.10375 14.26235 1175 ft 8 kts 307°
2026-05-04 20:29 50.10407 14.26169 1173 ft 8 kts 307°
2026-05-04 20:29 50.10435 14.26113 1174 ft 6 kts 307°
2026-05-04 20:29 50.10458 14.26062 1172 ft 6 kts 306°
2026-05-04 20:29 50.10486 14.26004 1170 ft 8 kts 308°
2026-05-04 20:30 50.10533 14.25977 1171 ft 8 kts 14°
2026-05-04 20:30 50.10578 14.26022 1170 ft 8 kts 32°
2026-05-04 20:30 50.10625 14.26066 1170 ft 8 kts 31°
2026-05-04 20:30 50.10669 14.26112 1173 ft 7 kts 35°
2026-05-04 20:31 50.10711 14.26158 1170 ft 7 kts 34°
2026-05-04 20:31 50.10761 14.26209 1172 ft 10 kts 33°
2026-05-04 20:31 50.10815 14.26268 1171 ft 9 kts 36°
2026-05-04 20:31 50.10868 14.26324 1172 ft 9 kts 34°
2026-05-04 20:32 50.10920 14.26379 1172 ft 9 kts 34°
2026-05-04 20:32 50.10970 14.26433 1170 ft 9 kts 34°
2026-05-04 20:32 50.11019 14.26485 1170 ft 9 kts 34°
2026-05-04 20:32 50.11048 14.26560 1173 ft 8 kts 90°
2026-05-04 20:33 50.11011 14.26624 1173 ft 8 kts 148°
2026-05-04 20:33 50.10966 14.26668 1171 ft 7 kts 147°
2026-05-04 20:33 50.10925 14.26670 1171 ft 5 kts 208°
2026-05-04 20:33 50.10900 14.26645 1170 ft 2 kts 214°
2026-05-04 20:34 50.10897 14.26642 1171 ft 0 kts 214°